Regional Weather Roundup
Issued by NWS Jackson, KY

Home | Current Version | Previous Version | Graphics & Text | Print | Product List | Glossary On
Versions: 1 2 3 4 5 6 7 8 9 10 11 12 13 14 15 16 17 18 19 20 21 22 23 24 25 26 27 28 29 30 31 32 33 34 35 36 37 38 39 40 41 42 43 44 45 46 47 48 49 50
000
ASUS43 KJKL 232210
RWRJKL

EAST KENTUCKY HOURLY WEATHER ROUNDUP
NATIONAL WEATHER SERVICE JACKSON KY
600 PM EDT SAT JUL 23 2016

NOTE: "FAIR" INDICATES FEW OR NO CLOUDS BELOW 12,000 FEET WITH
NO SIGNIFICANT WEATHER AND/OR OBSTRUCTIONS TO VISIBILITY.

* THESE REPORTS ARE NOT UNDER NWS QUALITY CONTROL AND MAY NOT
  REPORT WEATHER SUCH AS PRECIPITATION AND FOG.

KYZ079-080-083-085-087-088-110-112-115-119-120-232300
...EASTERN KENTUCKY...

CITY           SKY/WX    TMP DP  RH WIND       PRES   REMARKS
JACKSON        SUNNY     89  72  56 VRB3      30.01F HX  96
LONDON         SUNNY     92  68  45 NE5       30.00F HX  96
SOMERSET*      CLOUDY    90  70  51 CALM      29.99F HX  95
MONTICELLO*    CLOUDY   N/A N/A N/A N13       30.00F
WILLIAMSBURG*  CLEAR     88  73  62 SW3       30.01S HX  96
MIDDLESBORO*   MOSUNNY   91  72  54 N6        30.00S HX  97
HARLAN APT*    MOCLDY    88  72  58 NE5       30.03R HX  94
PIKE CO APT*     N/A     89  71  56 CALM      30.03R HX  95
MOREHEAD APT*  CLEAR     90  72  55 CALM      30.00F HX  96
ASHLAND*       MOSUNNY   90  77  66 CALM      29.94F HX 102
$$

KYZ035-036-041-042-044-050-067-078-099-232300
...CENTRAL KENTUCKY...

CITY           SKY/WX    TMP DP  RH WIND       PRES   REMARKS
MT STERLING*   SUNNY     90  73  58 W3        30.00S HX  98
FLEMING/MASON* SUNNY     89  72  56 CALM      30.00S HX  97
DANVILLE*      SUNNY     90  72  55 CALM      29.99F HX  96
RICHMOND*      SUNNY     91  70  49 CALM      29.98F HX  97
LEXINGTON      SUNNY     92  70  48 W5        29.99F HX  97
FRANKFORT      SUNNY     92  71  50 W6        29.97F HX  98
LOUISVILLE     PTSUNNY   95  70  44 VRB7      29.94F HX 101
LEBANON*         N/A     91  72  52 CALM      29.98F HX  98
GLASGOW*       SUNNY     91  72  52 CALM      29.96F HX  98
BOWLING GREEN  SUNNY     92  75  57 SE3       29.94F HX 103
$$

KYZ091>093-OHZ055-061-077-WVZ005-015-034-035-042-232300
...SOUTHERN OHIO/WEST VIRGINIA...

CITY           SKY/WX    TMP DP  RH WIND       PRES   REMARKS
COVINGTON      MOSUNNY   93  72  50 N7        29.97F HX 101
COLUMBUS       MOSUNNY   90  71  53 NW9       29.96F HX  96
DAYTON         PTSUNNY   89  71  55 W6        29.98F HX  95
WILMINGTON     MOSUNNY   91  72  53 W8        29.98F HX  98
HUNTINGTON       N/A     91  71  51 SW3       29.96F HX  97
CHARLESTON       N/A     92  69  47 VRB5      29.98F HX  97
PINEVILLE*       N/A     91  65  43 MISG      30.08F HX  92
BECKLEY          N/A     86  66  51 N6        30.08F
BLUEFIELD        N/A     81  63  54 E5        30.12S
LOGAN CO APT*    N/A     88  72  58 W5        30.02S HX  94
$$

VAZ002-007-008-TNZ017-027-036-066-071-232300
...SOUTHWEST VIRGINIA/EAST TENNESSEE...

CITY           SKY/WX    TMP DP  RH WIND       PRES   REMARKS
WISE*            N/A     72  59  64 NW5       30.14R
JONESVILLE*      N/A     93  66  40 CALM      30.03R HX  96
ABINGDON*        N/A     89  64  43 N5        30.06R HX  90
BRISTOL        PTSUNNY   92  66  42 N8        30.00R HX  94
MORRISTOWN*    CLEAR     90  70  51 NW10G17   29.99R HX  95
SEVIERVILLE*   PTCLDY    84  68  58 W9        29.98R
KNOXVILLE      CLOUDY    79  68  69 SW20      29.99S THUNDER
OAK RIDGE      CLOUDY    90  71  53 VRB3      29.99S HX  96
CROSSVILLE     CLOUDY    77  69  76 NE6       30.05R
NASHVILLE      CLOUDY    91  71  51 E3        29.95S HX  97
$$

...KEY TO REMARKS...
VSB - VISIBILITY IN MILES
WCI - WIND CHILL INDEX
HX  - HEAT INDEX

$$



USA.gov is the U.S. government's official web portal to all federal, state and local government web resources and services.